This is the latest recevied weather packets stored in our database for station/object KQ4OSL. If no packets are shown the sender has not sent any weather packets the latest 10 day(s).
| Time | Temp. | Humidity | Pressure | Rain* | Wind** | Luminosity | Snow |
|---|---|---|---|---|---|---|---|
| 1777490261 | 24.44° C | 79% | 1014.8 hPa | 0 mm | - | 170 W/m² | - |
| 1777489959 | 25° C | 78% | 1014.5 hPa | 0 mm | - | 197 W/m² | - |
| 1777489657 | 24.44° C | 79% | 1014.9 hPa | 0 mm | - | 185 W/m² | - |
| 1777489353 | 24.44° C | 77% | 1014.9 hPa | 0 mm | - | 168 W/m² | - |
| 1777489050 | 24.44° C | 77% | 1014.8 hPa | 0 mm | - | 239 W/m² | - |
| 1777488747 | 25° C | 77% | 1014.9 hPa | 0 mm | - | 242 W/m² | - |
| 1777488444 | 25.56° C | 77% | 1014.7 hPa | 0 mm | - | 380 W/m² | - |
| 1777488143 | 25.56° C | 76% | 1014.9 hPa | 0 mm | - | 676 W/m² | - |
| 1777487841 | 25.56° C | 75% | 1014.7 hPa | 0 mm | - | 757 W/m² | - |
| 1777487538 | 25° C | 77% | 1014.9 hPa | 0 mm | - | 290 W/m² | - |
| 1777487235 | 24.44° C | 77% | 1014.7 hPa | 0 mm | - | 185 W/m² | - |
| 1777486931 | 24.44° C | 77% | 1015.1 hPa | 0 mm | - | 306 W/m² | - |
| 1777486628 | 24.44° C | 76% | 1014.9 hPa | 0 mm | - | 132 W/m² | - |
| 1777486326 | 25° C | 77% | 1015.1 hPa | 0 mm | - | 232 W/m² | - |
| 1777486023 | 24.44° C | 78% | 1015.1 hPa | 0 mm | - | 204 W/m² | - |
| 1777485720 | 24.44° C | 77% | 1015.3 hPa | 0 mm | - | 218 W/m² | - |
| 1777485420 | 24.44° C | 76% | 1015.1 hPa | 0 mm | - | 287 W/m² | - |
| 1777485116 | 24.44° C | 77% | 1015.2 hPa | 0 mm | - | 201 W/m² | - |
| 1777484813 | 24.44° C | 75% | 1015 hPa | 0 mm | - | 217 W/m² | - |
| 1777484509 | 24.44° C | 77% | 1015.2 hPa | 0 mm | - | 316 W/m² | - |
| 1777484207 | 24.44° C | 76% | 1015.4 hPa | 0 mm | - | 243 W/m² | - |
| 1777483903 | 24.44° C | 77% | 1015.4 hPa | 0 mm | - | 338 W/m² | - |
| 1777483600 | 25° C | 74% | 1015.4 hPa | 0 mm | - | 278 W/m² | - |
| 1777483300 | 25.56° C | 74% | 1015.4 hPa | 0 mm | - | 264 W/m² | - |
| 1777482996 | 25° C | 75% | 1015.4 hPa | 0 mm | - | 824 W/m² | - |
* Rain latest hour (hover to see other rain measurements)
** Current wind speed in m/s (hover to see current wind gust speed)